Kearney, NE

9:43 PM CDT on August 16, 2017 (GMT -0500)
Kearney Municipal

Weather History for KEAR - March, 2013

Change the Weather History Date:

Sunday, March 10, 2013

  Actual Average Record
Temperature  
Mean Temperature 24 °F 36 °F  
Max Temperature 30 °F 48 °F 87 °F (1989)
Min Temperature 18 °F 23 °F -5 °F (1998)
Degree Days  
Heating Degree Days 41 29  
Month to date heating degree days 311  
Cooling Degree Days 0 0  
Month to date cooling degree days 0  
Moisture  
Dew Point 18 °F    
Average Humidity 78    
Maximum Humidity 92    
Minimum Humidity 63    
Precipitation  
Precipitation 0.00 in - 0.51 in (1975)
Sea Level Pressure  
Sea Level Pressure 29.96 in    
Wind  
Wind Speed 27 mph (NNW)    
Max Wind Speed 32 mph    
Max Gust Speed 46 mph    
Visibility 9 miles    
Events      
T = Trace of Precipitation, MM = Missing Value Source: NWS Daily Summary

Daily Weather History Graph

Daily Weather History Graph

Search for Another Location

Airport or City:

Trip Planner

Search our weather history database for the weather conditions in past years. The results will help you decide how hot, cold, wet, or windy it might be!

Date:

Astronomy

Mar. 10, 2013 Rise Set
Actual Time 7:55 AM CDT 7:37 PM CDT
Civil Twilight 7:28 AM CDT 8:04 PM CDT
Nautical Twilight 6:56 AM CDT 8:36 PM CDT
Astronomical Twilight 6:24 AM CDT 9:08 PM CDT
Moon 6:56 AM CDT (3/10) 6:47 PM CDT (3/10)
Length of Visible Light 12h 36m
Length of Day
11h 42m
Waning Crescent, 2% of the Moon is Illuminated
Mar 10
Waning Crescent
Mar 11
New
Mar 19
First Quarter
Mar 27
Full
Apr 2
Last Quarter

Hourly Weather History & Observations

Time (CDT) Temp. Windchill Dew Point Humidity Pressure Visibility Wind Dir Wind Speed Gust Speed Precip Events Conditions
12:15 AM 30.2 °F 15.4 °F 26.6 °F 86% 29.81 in 10.0 mi North 28.8 mph 35.7 mph N/A   Overcast
12:35 AM 30.2 °F 14.9 °F 26.6 °F 86% 29.82 in 10.0 mi North 31.1 mph 38.0 mph N/A   Overcast
12:55 AM 30.2 °F 15.2 °F 26.6 °F 86% 29.82 in 10.0 mi North 29.9 mph 39.1 mph N/A   Overcast
1:15 AM 30.2 °F 14.9 °F 26.6 °F 86% 29.82 in 10.0 mi North 31.1 mph 40.3 mph N/A   Overcast
1:35 AM 30.2 °F 14.7 °F 26.6 °F 86% 29.82 in 10.0 mi North 32.2 mph 39.1 mph N/A   Overcast
1:55 AM 30.2 °F 14.9 °F 26.6 °F 86% 29.82 in 4.0 mi North 31.1 mph 38.0 mph N/A   Overcast
3:15 AM 30.2 °F 15.9 °F 28.4 °F 93% 29.82 in 1.8 mi North 26.5 mph 38.0 mph N/A   Overcast
3:35 AM 30.2 °F 15.4 °F 28.4 °F 93% 29.83 in 2.0 mi North 28.8 mph 38.0 mph N/A   Overcast
3:55 AM 30.2 °F 14.9 °F 28.4 °F 93% 29.83 in 2.0 mi NNW 31.1 mph 35.7 mph N/A   Overcast
4:15 AM 30.2 °F 14.1 °F 28.4 °F 93% 29.84 in 3.0 mi NNW 35.7 mph 41.4 mph N/A   Overcast
4:35 AM 28.4 °F 11.8 °F 24.8 °F 86% 29.85 in 5.0 mi NNW 34.5 mph 44.9 mph N/A   Overcast
4:55 AM 28.4 °F 12.3 °F 21.2 °F 74% 29.86 in 10.0 mi NNW 32.2 mph 46.0 mph N/A   Overcast
5:15 AM 28.4 °F 14.7 °F 24.8 °F 86% 29.87 in 10.0 mi NNW 21.9 mph 32.2 mph N/A   Mostly Cloudy
5:35 AM 28.4 °F 13.0 °F 23.0 °F 80% 29.87 in 10.0 mi NNW 28.8 mph 44.9 mph N/A   Overcast
5:55 AM 26.6 °F 10.0 °F 19.4 °F 74% 29.89 in 10.0 mi NNW 31.1 mph 41.4 mph N/A   Overcast
6:15 AM 26.6 °F 10.0 °F 19.4 °F 74% 29.90 in 10.0 mi NNW 31.1 mph 40.3 mph N/A   Overcast
6:35 AM 24.8 °F 7.3 °F 19.4 °F 80% 29.91 in 10.0 mi NNW 32.2 mph 38.0 mph N/A   Overcast
6:55 AM 24.8 °F 8.1 °F 17.6 °F 74% 29.92 in 10.0 mi NNW 28.8 mph 34.5 mph N/A   Overcast
7:15 AM 24.8 °F 8.4 °F 17.6 °F 74% 29.93 in 10.0 mi NNW 27.6 mph 39.1 mph N/A   Overcast
7:35 AM 24.8 °F 7.6 °F 17.6 °F 74% 29.94 in 10.0 mi NW 31.1 mph 39.1 mph N/A   Overcast
7:55 AM 24.8 °F 9.0 °F 15.8 °F 69% 29.95 in 10.0 mi NNW 25.3 mph 39.1 mph N/A   Overcast
8:15 AM 23.0 °F 8.0 °F 17.6 °F 80% 29.95 in 8.0 mi NNW 20.7 mph 35.7 mph N/A   Overcast
8:35 AM 23.0 °F 4.6 °F 17.6 °F 80% 29.95 in 6.0 mi NNW 33.4 mph 36.8 mph N/A   Overcast
8:55 AM 21.2 °F 3.5 °F 15.8 °F 80% 29.96 in 10.0 mi NW 27.6 mph 38.0 mph N/A   Overcast
9:15 AM 21.2 °F 3.5 °F 15.8 °F 80% 29.96 in 10.0 mi NW 27.6 mph 38.0 mph N/A   Overcast
9:35 AM 21.2 °F 2.2 °F 15.8 °F 80% 29.97 in 10.0 mi NNW 33.4 mph 41.4 mph N/A   Overcast
9:55 AM 21.2 °F 3.0 °F 15.8 °F 80% 29.97 in 10.0 mi NW 29.9 mph 39.1 mph N/A   Overcast
10:15 AM 21.2 °F 3.3 °F 15.8 °F 80% 29.98 in 10.0 mi NNW 28.8 mph 39.1 mph N/A   Scattered Clouds
10:35 AM 21.2 °F 3.3 °F 15.8 °F 80% 30.00 in 10.0 mi NNW 28.8 mph 38.0 mph N/A   Scattered Clouds
10:55 AM 21.2 °F 2.4 °F 15.8 °F 80% 29.99 in 9.0 mi NW 32.2 mph 40.3 mph N/A   Mostly Cloudy
11:15 AM 21.2 °F 2.4 °F 15.8 °F 80% 29.99 in 9.0 mi NNW 32.2 mph 40.3 mph N/A   Scattered Clouds
11:35 AM 21.2 °F 1.7 °F 15.8 °F 80% 30.00 in 9.0 mi NNW 35.7 mph 41.4 mph N/A   Scattered Clouds
11:55 AM 23.0 °F 5.7 °F 14.0 °F 68% 30.01 in 10.0 mi NNW 28.8 mph 40.3 mph N/A   Mostly Cloudy
12:15 PM 21.2 °F 2.4 °F 14.0 °F 74% 30.01 in 10.0 mi NNW 32.2 mph 41.4 mph N/A   Mostly Cloudy
12:35 PM 23.0 °F 6.3 °F 15.8 °F 74% 30.01 in 10.0 mi NNW 26.5 mph 36.8 mph N/A   Overcast
12:55 PM 23.0 °F 6.3 °F 15.8 °F 74% 30.01 in 10.0 mi NW 26.5 mph 39.1 mph N/A   Overcast
1:15 PM 23.0 °F 4.9 °F 15.8 °F 74% 30.01 in 10.0 mi NW 32.2 mph 40.3 mph N/A   Overcast
1:35 PM 24.8 °F 8.4 °F 15.8 °F 69% 30.02 in 10.0 mi NW 27.6 mph 38.0 mph N/A   Mostly Cloudy
1:55 PM 24.8 °F 9.3 °F 15.8 °F 69% 30.02 in 10.0 mi NNW 24.2 mph 32.2 mph N/A   Overcast
2:15 PM 24.8 °F 8.1 °F 15.8 °F 69% 30.01 in 10.0 mi NW 28.8 mph 34.5 mph N/A   Overcast
2:35 PM 26.6 °F 10.0 °F 17.6 °F 69% 30.01 in 10.0 mi NNW 31.1 mph 35.7 mph N/A   Mostly Cloudy
2:55 PM 26.6 °F 11.1 °F 15.8 °F 64% 30.01 in 10.0 mi NNW 26.5 mph 36.8 mph N/A   Mostly Cloudy
3:15 PM 26.6 °F 9.6 °F 17.6 °F 69% 30.00 in 10.0 mi NW 33.4 mph 38.0 mph N/A   Mostly Cloudy
3:35 PM 26.6 °F 10.8 °F 15.8 °F 64% 30.01 in 10.0 mi NNW 27.6 mph 34.5 mph N/A   Partly Cloudy
3:55 PM 26.6 °F 10.6 °F 15.8 °F 64% 30.01 in 10.0 mi NW 28.8 mph 35.7 mph N/A   Mostly Cloudy
4:15 PM 26.6 °F 11.7 °F 15.8 °F 64% 30.01 in 10.0 mi NW 24.2 mph 36.8 mph N/A   Mostly Cloudy
4:35 PM 26.6 °F 10.6 °F 17.6 °F 69% 30.01 in 10.0 mi NNW 28.8 mph 35.7 mph N/A   Scattered Clouds
4:55 PM 26.6 °F 11.1 °F 15.8 °F 64% 30.01 in 10.0 mi NNW 26.5 mph 34.5 mph N/A   Partly Cloudy
5:15 PM 26.6 °F 11.7 °F 15.8 °F 64% 30.01 in 10.0 mi NNW 24.2 mph 33.4 mph N/A   Mostly Cloudy
5:35 PM 26.6 °F 11.7 °F 17.6 °F 69% 30.01 in 10.0 mi NNW 24.2 mph 33.4 mph N/A   Scattered Clouds
5:55 PM 26.6 °F 11.4 °F 17.6 °F 69% 30.00 in 10.0 mi NW 25.3 mph 31.1 mph N/A   Partly Cloudy
6:15 PM 26.6 °F 12.4 °F 15.8 °F 64% 30.00 in 10.0 mi NW 21.9 mph 28.8 mph N/A   Partly Cloudy
6:35 PM 26.6 °F 11.4 °F 17.6 °F 69% 30.00 in 10.0 mi NNW 25.3 mph 33.4 mph N/A   Clear
6:55 PM 26.6 °F 10.6 °F 15.8 °F 64% 30.00 in 10.0 mi NNW 28.8 mph 34.5 mph N/A   Clear
7:15 PM 24.8 °F 11.1 °F 15.8 °F 69% 30.00 in 10.0 mi NNW 18.4 mph 28.8 mph N/A   Clear
7:35 PM 24.8 °F 9.6 °F 15.8 °F 69% 30.00 in 10.0 mi NNW 23.0 mph 36.8 mph N/A   Clear
7:55 PM 24.8 °F 9.6 °F 15.8 °F 69% 30.01 in 10.0 mi NNW 23.0 mph 29.9 mph N/A   Partly Cloudy
8:15 PM 23.0 °F 7.6 °F 15.8 °F 74% 30.02 in 10.0 mi NNW 21.9 mph 32.2 mph N/A   Partly Cloudy
8:35 PM 23.0 °F 8.7 °F 15.8 °F 74% 30.02 in 10.0 mi NNW 18.4 mph - N/A   Partly Cloudy
8:55 PM 23.0 °F 9.2 °F 15.8 °F 74% 30.02 in 10.0 mi NNW 17.3 mph - N/A   Clear
9:15 PM 21.2 °F 5.6 °F 14.0 °F 74% 30.01 in 10.0 mi NW 20.7 mph - N/A   Clear
9:35 PM 21.2 °F 4.9 °F 14.0 °F 74% 30.01 in 10.0 mi NW 23.0 mph 27.6 mph N/A   Clear
9:55 PM 21.2 °F 5.6 °F 14.0 °F 74% 30.01 in 10.0 mi NW 20.7 mph 24.2 mph N/A   Clear
10:15 PM 21.2 °F 5.6 °F 14.0 °F 74% 30.01 in 10.0 mi NNW 20.7 mph 27.6 mph N/A   Clear
10:35 PM 21.2 °F 6.4 °F 15.8 °F 80% 30.01 in 10.0 mi NW 18.4 mph 27.6 mph N/A   Clear
10:55 PM 21.2 °F 5.6 °F 15.8 °F 80% 30.00 in 10.0 mi NW 20.7 mph 26.5 mph N/A   Clear
11:15 PM 21.2 °F 6.4 °F 15.8 °F 80% 30.01 in 10.0 mi NW 18.4 mph 25.3 mph N/A   Clear
11:35 PM 19.4 °F 5.0 °F 14.0 °F 80% 30.01 in 10.0 mi NW 16.1 mph - N/A   Clear
11:55 PM 19.4 °F 5.5 °F 15.8 °F 86% 30.00 in 10.0 mi NW 15.0 mph - N/A   Clear
12:15 AM 19.4 °F 5.0 °F 14.0 °F 80% 29.99 in 10.0 mi NW 16.1 mph - N/A   Clear
12:35 AM 19.4 °F 5.5 °F 14.0 °F 80% 29.98 in 10.0 mi NNW 15.0 mph - N/A   Clear
12:55 AM 17.6 °F 3.7 °F 14.0 °F 86% 29.98 in 10.0 mi NNW 13.8 mph - N/A   Clear